{"data":{"norad_id":43058,"epoch":"2026-05-24T02:40:05.063808Z","epoch_age_seconds":162395,"freshness":"FRESH","line1":"1 43058U 17079D   26144.11116972 -.00000013  00000+0  00000+0 0  9992","line2":"2 43058  55.0782 222.1648 0004251 273.8100  86.1948  1.70474790 52605","mean_motion":1.7047479,"eccentricity":0.0004251,"inclination_deg":55.0782,"raan_deg":222.1648,"arg_perigee_deg":273.81,"mean_anomaly_deg":86.1948,"bstar":0,"rev_number":5260,"period_min":844.6996767088,"perigee_km":23209.508552762,"apogee_km":23234.674667126,"semimajor_km":29600.228609944,"source":"CELESTRAK","updated_at":"2026-05-25T13:38:24.060160Z"}}